Baseball 板


LINE

Lamigo桃猿 余德龍 詹智堯 蔡建偉 義大犀牛 裁判 1 詹智堯 高國輝 林旺衛 張建銘 / 1 林旺衛 主 尤志欽 2 林智平 \     林智勝 郭嚴文    /  2 張建銘 一 林金達 3 林智勝 林瑋恩 陳凱倫 /   3 高國輝 二 張展榮 4 林泓育  林智平 陳俊秀   4 林益全 三 王俊宏 5 郭嚴文 陽冠威 林益全    5 陽冠威陳俊秀   \ 蘭斯佛 /      6 吳宗峻蔡建偉 DH \ 何南德 /  DH    7 陳凱倫 劉時豪 林泓育 \   / 吳宗峻   8 林琨笙余德龍          \ /         9 林瑋恩 劉時豪 主播台 緯來體育台 ELTA育樂台 林琨笙 緯來 楊正磊 陳瑞昌 兩台直播 ELTA 吳昇府 鄭景益 場 戰績 局數 ERA K ER 場 戰績 局數 ERA K ER 蘭斯佛 全季 16 9W3L 109.1 3.46 60 42 何南德 全季 7 3W1L 43.1 3.12 32 15 vs犀 6 4W1L 39.1 3.66 15 16 vs猿 4 1W1L 20.0 5.40 13 12 --



※ 發信站: 批踢踢實業坊(ptt.cc), 來自: 36.229.217.73
※ 文章網址: https://webptt.com/m.aspx?n=bbs/Baseball/M.1436603157.A.F72.html
1F:推 yushenlin: 贏定了 07/11 16:26
2F:推 xxx3: 沒空啦 07/11 16:26
3F:→ yushenlin: 話說Hu是要休到何時 07/11 16:26
4F:推 d90493: 老皮又會上來放火嗎 07/11 16:26
5F:→ nakayamayyt: 葉總不錯 讓黑峻一直上場 07/11 16:27
6F:推 sony1256: 除非超大比分 不然老皮一直操~慘 07/11 16:27
7F:推 EdisonDeng: Hu預計休一周 下周應該就會回來 07/11 16:28
8F:推 t20000911: 小皇帝不是上一軍了?怎麼是凱倫先發 07/11 16:28
9F:推 a136136c: 還是不讓高休息…… 07/11 16:29
10F:推 liunwaiqoo: 林羿豪會再上場嗎?超越曾兆豪、陳禹勳的男人要出現了? 07/11 16:29
11F:推 oldEn15: 有咖啡推 07/11 16:30
12F:推 l3086: 推啦,不過沒胡梗王的日子挺無聊的,老胡快快休養好身體! 07/11 16:31
13F:噓 CruxLaelaps: 為啥不換高去DH 07/11 16:32
14F:推 rrnew: 希望別再老皮了 07/11 16:33
15F:推 twnc1006: 老皮早就超過陳瑀薰了 07/11 16:33
16F:噓 dragon49er: SS又林瑋恩 07/11 16:33
17F:推 tw88: 海豚咖啡讚 07/11 16:34
18F:推 lawabe: 未看先猜老皮會上 07/11 16:39
19F:推 btonyo: 希望釣蝦CF WWLF 國輝DH 07/11 16:41
20F:→ OLM: 然後胡板凳? 07/11 16:45
21F:推 Rex3661: 我輝今天必炸 07/11 16:57
22F:推 elve7878: 老皮比FB勳還操吧... 07/11 16:58
23F:推 oddhand: 蘭斯佛沒完投的話 米糕穩輸 07/11 16:58
24F:→ icecold52: 今天跳毛巾操?! XD 07/11 16:59
25F:推 m85037: 郭靜 07/11 16:59
26F:推 mimiiy: 丟好遠XD 07/11 17:00
27F:推 Lackland: 阿姨你好 07/11 17:00
28F:→ icecold52: 超級大暴投 連大義都嚇到了 XDD 07/11 17:00
29F:推 tw88: CPBLTV怒切qqqqq 07/11 17:00
30F:→ m85037: 大爆投 07/11 17:00
31F:推 iceyang: 郭靜不是黃藥師的女婿嗎 07/11 17:00
32F:推 giancarloye: 戀愛了 07/11 17:00
※ 編輯: hicker (36.229.217.73), 07/11/2015 17:02:51
33F:→ icecold52: ELTA 是吳昇府 鄭景益 07/11 17:03
34F:推 mp3w69: 沒有火車便當!! 07/11 17:03
35F:→ cocount: 仁科... 07/11 17:03
36F:推 linhsiuwei: 郭靜 07/11 17:03
37F:推 lin0322: 交給我處理 07/11 17:03
38F:→ icecold52: 大義跟唐基都跟郭靜抱抱 XDDD 07/11 17:03
39F:推 s900144: 哈哈哈兩隻太寶啦 07/11 17:03
40F:→ s900144: 帥啊老何! 07/11 17:05
41F:推 thirdblue: 跳好高XDDD 07/11 17:05
42F:推 goodevening: 神全不意外.... 07/11 17:05
43F:→ icecold52: 林益全的守備真的很歡樂 XD 07/11 17:05
44F:推 lin0322: 差點害投手被撞 07/11 17:05
※ 編輯: hicker (36.229.217.73), 07/11/2015 17:07:21
45F:推 iceyang: 神全跟31一樣阿 帶棒子守備的男人 要習慣 07/11 17:06
46F:→ cpcpao: 何投球節奏超快 趕著逛夜市 07/11 17:07
47F:→ icecold52: 外野收音還是這麼清楚啊 XD 07/11 17:07
48F:推 kress: 今天是林捕!! 07/11 17:07
49F:推 goodevening: 本土投手都沒這種投球節奏的 07/11 17:08
50F:→ kress: 這球有點.... 07/11 17:08
51F:推 cissant: 海你妹 07/11 17:08
52F:→ tw88: BB+BB 07/11 17:09
53F:推 dxcer: 難得何一次2保送 07/11 17:09
54F:→ goodevening: 一局就2bb 要爆的感覺 07/11 17:09
55F:推 lichun1228: 鬼腳.. 07/11 17:09
56F:→ yyc1217: 褲子被希克穿走了 07/11 17:09
57F:→ goodevening: 一堆壞球 07/11 17:09
58F:推 CarrieWhite: 一整排小喇叭好壯觀呀... 07/11 17:10
59F:→ icecold52: 那個小號手群是怎樣啦 XDDDDDD 07/11 17:10
60F:→ goodevening: 不是官方的話 這小喇叭動員還真威 07/11 17:11
61F:推 kress: 今天主審是...這種外角的這麼愛撿... 07/11 17:11
62F:推 applejone: 狂跑 07/11 17:11
63F:→ icecold52: 主審是尤志欽 07/11 17:11
64F:推 iceyang: 盜三壘 完全不給捕手面子 07/11 17:12
65F:推 blackhearted: 楊冠威是不是太晚進了 07/11 17:12
66F:→ tw88: 韃靼的腳塵 07/11 17:12
67F:推 larailing: 剛剛如果抓2壘 抓得到嗎 07/11 17:12
68F:→ goodevening: 林補被盜好玩的 07/11 17:12
69F:推 alsk1566: 這球真的跑的厲害~ 07/11 17:12
70F:→ goodevening: 當然抓三壘 3b近很多 07/11 17:12
71F:推 hu610346: 鬼腳跑太快了 完全沒機會 07/11 17:13
72F:推 dxcer: ...............超海 07/11 17:13
73F:→ blackhearted: 如果直接丟一壘呢 07/11 17:13
74F:推 chenpy929: 海............. 07/11 17:13
75F:推 kress: 這好球帶會不會太不固定了一點.. 07/11 17:13
76F:→ icecold52: 這球好球?! 07/11 17:13
77F:推 applejone: 喔喔 有申訴 07/11 17:13
78F:推 NTJL: 記錄斷了之後不知道會不會陷入低潮?! 07/11 17:14
79F:→ Finn5566: 有沒有尤志清都專站LM主審的八卦啊? 07/11 17:14
80F:噓 godtim: 主審這外角球也撿 07/11 17:14
81F:推 goodevening: 打得好 07/11 17:15
82F:推 thirdblue: 守住了XDDD 07/11 17:15
83F:→ icecold52: 尤志欽之前就表了yoyo好幾球 不意外 07/11 17:15
84F:推 kress: 說實話 剛剛那球外角變化撿就真的有點過份... 07/11 17:15
85F:推 twnc1006: 主審可不可以都送去培訓一下ZZ 07/11 17:15
86F:推 hu610346: 義大今天又要燒牛棚 燒爛好了 07/11 17:15
87F:推 Y1999: 又是尤...... 07/11 17:16
88F:噓 amani168: 又是尤志欽.......................................... 07/11 17:16
89F:→ twnc1006: 對齁 為什他都剛好站主審= = 07/11 17:16
90F:噓 s638450: 尤志欽真是看了都會怕 07/11 17:16
91F:推 NTJL: 尤當主審 兩隊都要有心理準備T.T 07/11 17:17
92F:→ Ogrish: 現場看會覺得外角浮動 07/11 17:18
93F:推 yusiang: 蘭斯佛好能吃局數啊,防禦率也算不錯 07/11 17:18
94F:→ lml99: 尤當主審 兩隊保重 07/11 17:18
95F:噓 amani168: 尤志欽可以離開裁判組嗎???????????? 好球袋超畸形 07/11 17:18
96F:推 goodevening: 沒有上方的攝影機,也不知到底經過本壘板時外不外角 07/11 17:19
97F:推 LOVEERIKA: 這好球帶好屌 07/11 17:19
98F:推 Finn5566: 上方的攝影機只有台南有 但某次被截圖後就沒什麼看過了 07/11 17:20
99F:→ tw88: 不出棒怕好球阿 哭哭 07/11 17:20
100F:推 lml99: UG8 07/11 17:21
101F:→ icecold52: 大概是主審怕上方角度的鏡頭 會被發現褲子沒穿吧 XDD 07/11 17:21
102F:→ tw88: fail 07/11 17:21
103F:推 davidrick: LM今年這種飛球漏掉好多次... 07/11 17:22
104F:推 cissant: 沒有12秒逆 07/11 17:28
105F:推 keans0785: 來支長打 07/11 17:28
106F:→ keans0785: 投手自己拖時間啊。。。 07/11 17:30
107F:推 freedomshit: 果然好球帶是看心情再判的 07/11 17:31
108F:推 keans0785: Der龍對著義大哪位球員在嘴碎啊? 07/11 17:33
109F:推 toms913214: 是小三嗎? 07/11 17:33
110F:推 NTJL: 糟糕~看來是秘密出遊阿 女生躲成那樣 07/11 17:33
111F:→ icecold52: Kisscam 有時候真的是強迫中獎啊 07/11 17:34
112F:推 sungastill: 還不錯啊 07/11 17:34
113F:→ keans0785: 一拳啊~ 07/11 17:34
114F:→ NTJL: 有些可能是朋友 就有點尷尬了 07/11 17:35
115F:→ keans0785: 打的真準。。。 07/11 17:35
116F:→ sungastill: 衰QQ 07/11 17:35
117F:→ keans0785: 跑真快 07/11 17:37
118F:噓 sungastill: 民視這鏡頭好爛 07/11 17:37
119F:→ keans0785: 出局如風 07/11 17:37
120F:→ icecold52: 這出局真快 XD 07/11 17:37
121F:推 lin0322: 哈哈 拼命打第一球 07/11 17:37
122F:推 BEEEEE: 啥,上個廁所出來又change了... 07/11 17:38
123F:推 keans0785: 世大運不可能打了 07/11 17:42
124F:推 mirror0: 世大運怎麼了 07/11 17:46
125F:→ NTJL: 喔喔 今天看起來很多人 07/11 17:46
126F:推 keans0785: 6千? 07/11 17:47
127F:→ keans0785: 小叮噹中彈 07/11 17:48
128F:推 mimiiy: 今天有活動,人數有比較多 07/11 17:50
129F:推 goodevening: 觸擊搞到差點雙殺 07/11 17:50
130F:推 CarrieWhite: 高雄牛迷很熱情聲音很大耶 XDDD 07/11 17:50
131F:推 sungastill: 咖啡打不好守不好戰術執行不好 頗慘 07/11 17:50
132F:推 st900278: 死到有剩 07/11 17:51
133F:推 LoveCheer: 笑死 沒人了嗎 這一軍的喔?哪隊的 07/11 17:51
134F:推 ichiro14: 妹居客! 07/11 17:51
135F:→ philxiao: 連續兩個自殺Play…u 07/11 17:52
136F:→ goodevening: 今年阻殺表現最好的結果是小叮噹 07/11 17:52
137F:推 NTJL: 慘 慢一大步~ 傳歪了說 07/11 17:52
138F:推 iceyang: 為了掩護揮了大壞球 07/11 17:52
139F:→ mimiiy: 打帶跑,戰術執行失敗是WW不是咖啡 07/11 17:52
140F:推 ohiyohuang: 小叮噹傳球好好笑XD 07/11 17:52
141F:→ jack482653: 慘 07/11 17:52
142F:→ icecold52: 不要小看小叮噹的空氣砲啊 總是會有打中的一次 XDDD 07/11 17:53
143F:推 aa97531aa: 爽 07/11 17:53
144F:→ icecold52: go go power ranger 結果現場教學三振舞鏡頭沒拍 XD 07/11 17:53
145F:推 sungastill: 我是說前面那個觸及 07/11 17:54
146F:推 cissant: ANU的自HIGH潮~~ 07/11 17:54
147F:推 binzip: 不算自殺啦!是小葉玩輸紅中 07/11 17:54
148F:推 goodevening: 風很大嗎??差點失誤 07/11 17:54
149F:→ goodevening: 近況真的超好,昨天可惜了 07/11 17:56
150F:推 tw88: 怒上二壘 07/11 17:56
151F:→ straight0711: 三振秀 07/11 17:58
152F:推 tw88: 微笑捕手-笙 07/11 17:59
153F:推 ft090646: 三振秀 07/11 17:59
154F:推 mimiiy: 啾咪林... 07/11 17:59
155F:推 sungastill: 達鬨總是一副苦瓜臉,林補總是一副揪咪臉XD 07/11 18:01
156F:推 m85037: 味全龍 07/11 18:03
157F:推 sungastill: 泰山不給上,龍迷早就從獅子場絕跡啦 07/11 18:03
158F:→ cpcpao: 今天一拳跟大師兄輪流NP是~~ 07/11 18:04
159F:推 goodevening: ug8!! 07/11 18:04
160F:推 straight0711: 爽 07/11 18:04
161F:→ CarrieWhite: 用力轟過來沒拆下來 XDDDDDDD 07/11 18:04
162F:推 liitracy: 全壘打啦,終於 07/11 18:04
163F:推 kress: 不~用~看囉~~ 出去啦 07/11 18:04
164F:推 muching: 20轟 07/11 18:05
165F:→ straight0711: HR!!!!! 07/11 18:05
166F:推 StephenLai: 國輝終於拉肚子啦 開心!!! 07/11 18:05
167F:推 charles20267: 今天一定肚子不舒服 07/11 18:05
168F:推 ribbonchiao: 紅中為什麼不選~~~ 07/11 18:05
169F:推 jj1004: 我輝終於醒了 還是要靠米糕XDD 07/11 18:05
170F:→ goodevening: 終於...看可以擺脫低潮嗎 07/11 18:05
171F:推 tw88: 第20發紅不讓!!!!!!!!!!!!!!!!!!! 07/11 18:05
172F:→ kress: 紅中:我不後悔 07/11 18:05
173F:→ icecold52: 果然是桃園王 見一次打一次 07/11 18:05
174F:→ straight0711: Bˊ2B 07/11 18:05
175F:推 phix: 紅中:我們外野滿了 07/11 18:05
176F:→ kress: B2B!!! 07/11 18:05
177F:→ muching: B2B!!! 07/11 18:05
178F:推 applejone: B2B... 07/11 18:05
179F:→ liitracy: B2B 07/11 18:05
180F:→ charles20267: B2B爽啦 07/11 18:05
181F:→ StephenLai: B to B!!!! 07/11 18:05
182F:→ giancarloye: B2b 07/11 18:05
183F:→ kress: 這才是EDA的恐怖三四棒啦 07/11 18:06
184F:→ jj1004: 神全最近也挺虎爛的....專打洋投 07/11 18:06
185F:→ tw88: 鱉禿憋 不憋啦!!!!!!! 07/11 18:06
186F:推 YESGOTO: 壘上無人安打王 07/11 18:06
187F:推 BEEEEE: 陽砲來一發? 07/11 18:06
188F:→ woody31317: 神全好猛~ 07/11 18:06
189F:推 philxiao: 太神了...... 07/11 18:06
190F:→ tw88: 太開心拉~~~~ 07/11 18:06
191F:→ kress: 我以為是重播= = 07/11 18:06
192F:→ sniperlin: 都打到那個用力轟過來的帆布... 07/11 18:07
193F:→ aoquan: 太爽啦 07/11 18:07
194F:推 straight0711: 正義必勝 07/11 18:07
195F:推 stevefran: B2B 07/11 18:08
196F:→ philxiao: 原來來有順風?! 07/11 18:08
197F:推 muching: 兩轟的落點好接近 07/11 18:08
198F:→ straight0711: 左外野明明逆風 07/11 18:08
199F:→ philxiao: 趁順風,陽砲來B2B2B吧! 07/11 18:08
200F:→ muching: B2B2...BB 07/11 18:09
201F:推 jajaja123: 這好球帶… 07/11 18:09
202F:推 mimiiy: 陽砲沒轟 07/11 18:09
203F:→ straight0711: 蘭退潮了 07/11 18:09
204F:→ MVM: LAMIGO那個帆布要不要先拆下來 07/11 18:10
205F:推 whshsquall: 最近的神全很猛 07/11 18:14
206F:噓 ofpurity: 又是老耿求婚 07/11 18:15
207F:→ icecold52: 又來上演求婚戲碼了 07/11 18:15
208F:推 giancarloye: 求婚 07/11 18:15
209F:推 wb7346: 好事給推 07/11 18:16
210F:推 sniperlin: 是在比賽比到一半嗎?? 07/11 18:16
211F:推 phoenixamare: 嫁了啦 07/11 18:16
212F:→ dm03: 不能用中場嗎..... 07/11 18:16
213F:噓 alan0204: 無聊 07/11 18:17
214F:推 CarrieWhite: 比到一半求婚不太好吧?有中場呀 07/11 18:17
215F:→ sniperlin: 求婚成功 馬上安打 07/11 18:17
216F:噓 a26892296: 時機不對吧= = 07/11 18:17
217F:→ amani168: 為什麼不是在五下結束???????????????????????????????? 07/11 18:17
218F:推 andy89202033: 比到一半求婚? 07/11 18:17
219F:推 Windows8: 為何求婚一定要到球場 07/11 18:17
220F:→ rockyegg: \拒絕他/\拒絕他/\拒絕他/\拒絕他/\拒絕他/\拒絕他/ 07/11 18:17
221F:→ sniperlin: 球團不會請教一下恰恰嗎??? 時機安排得這麼糟 07/11 18:17
222F:噓 ofpurity: 馬上安打 07/11 18:17
223F:推 Miketroutla: 男主角是研究所學長 很有背景 07/11 18:17
224F:推 usojapanese: 中場好+1 別影響其他人看球 07/11 18:17
225F:→ a26892296: 義大不懂時間分陪嗎= =? 07/11 18:17
226F:→ alan0204: 這種的就是要女方不能拒絕 不然很難看 07/11 18:17
227F:推 pizip: 場控很糟啊... 07/11 18:17
228F:推 scm6310: 可能五下球團有活動? 07/11 18:17
229F:→ CarrieWhite: 氣氛也不對,這樣只剩新人在浪漫說 07/11 18:18
230F:→ Windows8: 要是我就喊拒絕他 07/11 18:18
231F:→ sniperlin: 萬一問你願意嗎? 然後全場都在喊三振他 07/11 18:18
232F:推 wb7346: 三振他XDDD 07/11 18:18
233F:推 mp3w69: 今天盜得有點爽 07/11 18:19
234F:噓 Miketroutla: 重點是早就訂好結婚日期了,在那邊假求婚 無言 07/11 18:19
235F:推 ribbonchiao: 說實話訂好結婚日期跟求婚是兩件事啊 07/11 18:20
236F:→ ribbonchiao: 現在一堆人都是決定要結婚了再補上求婚儀式 07/11 18:20
237F:推 ivan609: 馬上就平手了... 07/11 18:21
238F:推 Windows8: 馬上追平= = 07/11 18:21
239F:推 LoveCheer: 追平囉~^_^ 07/11 18:21
240F:推 Miketroutla: 所以兩人先談好要不要結婚然後才求婚嗎?什麼鬼 07/11 18:21
241F:推 reborn0301: 咖啡zz 07/11 18:21
242F:→ icecold52: 咖啡小子有撲有交代 07/11 18:21
243F:→ tw88: 2分不夠qq 07/11 18:22
244F:推 hu610346: 我以為咖啡撲到了... 07/11 18:22
245F:推 jj1004: 還真的是有撲有交代 07/11 18:22
246F:→ LoveCheer: 求婚都馬是為了女生的面子問題 07/11 18:22
247F:→ wb7346: 站位問題? 07/11 18:22
248F:→ reborn0301: 兩年前就撲到了 07/11 18:22
249F:→ flameteru: 小心那隻也會盜壘 07/11 18:22
250F:→ tw88: 咖啡鋪下去真的很接近了 別酸惹qq 07/11 18:22
251F:推 pizip: 很多女生很在意求婚這件事啊...就算已經決定要結婚,少了求 07/11 18:22
252F:→ pizip: 婚的儀式就準備被念一輩子 07/11 18:22
253F:噓 ft090646: 2分一下就花光了 07/11 18:23
254F:推 goodevening: 一定盜 2出局洪中都下盜壘 07/11 18:23
255F:推 freezee: 嘿 嘿 嘿 嘿 07/11 18:23
256F:推 cpcpao: 小朋友都會 chance @@ 07/11 18:23
257F:推 mystage: 補求婚哪有什麼稀奇的,為了下半輩子的少一則舊賬 07/11 18:23
258F:→ tw88: 愛棒球讚拉~ 07/11 18:24
259F:推 NTJL: 小胖近況不太好 07/11 18:24
260F:→ sniperlin: 林智勝感覺會盜 07/11 18:24
261F:→ mystage: 結果是一安,狀況真的沒很好 07/11 18:25
262F:推 mimiiy: 何南德的臉好像在說「我不會投球了」 07/11 18:25
263F:推 goodevening: 中職洋將的褲子真的掉很快,五六場後就被破解 07/11 18:26
264F:推 Y1999: 這樣相比 神鬼佛還滿能撐的.... 07/11 18:26
265F:→ icecold52: 突然覺得外野小號手海是正確的 不然嗆司曲一吹 也很累 07/11 18:26
266F:→ tw88: 賀南德瞳孔好大 07/11 18:27
267F:推 sniperlin: 微笑BB 換我秀 我秀很久沒轟了 07/11 18:27
268F:推 ivan609: 何南德突然走樣... 07/11 18:27
269F:推 mystage: 陳俊秀,結束了 07/11 18:27
270F:推 goodevening: 抓我秀?? 07/11 18:28
271F:推 shintz: 何南德怎麼了? 07/11 18:28
272F:→ charles20267: 投不進去了 快換 07/11 18:28
273F:推 NTJL: 剛郭有一球跟詹帥三振的那顆好像差不多 是看牌子給的嗎? 07/11 18:28
274F:→ sniperlin: 外角曲球嗎? 07/11 18:28
275F:→ goodevening: 我秀亂指揮 07/11 18:28
276F:推 blackhearted: 和難得今天狀況真差 07/11 18:28
277F:推 freeclouds: 今天又是三振秀? 07/11 18:28
278F:推 wb7346: 三振秀 07/11 18:29
279F:→ sniperlin: 0S2B 我秀下一球要猛揮了 07/11 18:29
280F:→ wb7346: 殘壘秀 07/11 18:29
281F:→ ivan609: 賴師傅熱身中 07/11 18:29
282F:→ icecold52: 尤志欽好球帶就是這樣子啊 很不一致 07/11 18:29
283F:→ tw88: 2B0S qq 07/11 18:29
284F:推 shintz: 3B0S .. 07/11 18:29
285F:→ tw88: 3B0S 07/11 18:29
286F:→ sungastill: 要自爆了....... 07/11 18:30
287F:推 dooroqen: 送燈預備 07/11 18:30
288F:推 mystage: 當人型立牌可以上壘嗎? 07/11 18:30
289F:→ goodevening: 到現在一球都沒揮 07/11 18:30
290F:→ dooroqen: 你秀不會打就好好選球好嗎 07/11 18:30
291F:推 a5480277: 我秀感覺很想揮 但又忍住 07/11 18:30
292F:推 freeclouds: 懶飛秀 07/11 18:30
293F:推 dodotank: 乎 07/11 18:30
294F:→ sniperlin: 沒打好 偏高 07/11 18:30
295F:→ ivan609: 打出去 抖了一下 還好... 07/11 18:30
296F:推 tsairay: 下庄啦 07/11 18:30
297F:推 Windows8: G……… 07/11 18:30
298F:推 cissant: 打壞球 鋪 07/11 18:30
299F:推 muching: 滿壘殘 07/11 18:30
300F:→ tw88: 下庄 07/11 18:30
301F:→ icecold52: 陳俊秀也蠻慘的 各種殘壘 07/11 18:30
302F:→ shintz: 差幾公尺就能當英雄了 07/11 18:30
303F:推 babaholala: 哀呀~~~~~~~~~~~~~~~ 07/11 18:30
304F:→ flameteru: D槽show 07/11 18:30
305F:→ Windows8: 沒有S 07/11 18:31
306F:推 jj1004: 何今天好多保送 狀況普普 07/11 18:31
307F:→ sungastill: 下庄XD 07/11 18:31
308F:→ ft090646: 出局秀 07/11 18:31
309F:→ rock0525: 高飛秀.... 07/11 18:31
310F:→ flameteru: 高國輝打這顆就出去了 07/11 18:31
311F:推 ivan609: 林捕今天不錯哦~~~ 07/11 18:34
312F:推 tw88: 一壘安 讚 07/11 18:35
313F:推 goodevening: 一定觸擊 07/11 18:35
314F:→ goodevening: 不觸擊dp機率太高 07/11 18:35
315F:推 CarrieWhite: 休息室戰術是大威下的說,所以還是大威作戰嗎 07/11 18:35
316F:推 mimiiy: 葉總當球員的時候好像沒這麼帥啊 ... 07/11 18:36
317F:推 ivan609: 嚇死人= =.... 07/11 18:36
318F:推 babaholala: 這出局吧??? 07/11 18:36
319F:推 EdisonQ: ... 07/11 18:36
320F:推 jj1004: 收打打成飛球 真慘XD 07/11 18:36
321F:→ ivan609: 腳離壘啦~~SAFE無誤 07/11 18:37
322F:→ babaholala: 啊 腳離開了 07/11 18:37
323F:→ goodevening: 戰術終結者 07/11 18:37
324F:推 reborn0301: 自殺棒不意外 07/11 18:37
325F:推 shintz: 傳歪了 07/11 18:37
326F:→ ivan609: WW打的跟點的沒兩樣...= = 07/11 18:37
327F:推 tw88: 禿奧 07/11 18:38
328F:推 sungastill: 自殺棒 咖啡 確定 07/11 18:38
329F:→ ivan609: 火哥 得點圈+歪果人啊!!!!!! 07/11 18:38
330F:→ goodevening: 佛真的是吃局數之王,用球很省 07/11 18:38
331F:推 kenny770322: 林補到底跟林智平在笑什麼? 07/11 18:40
332F:推 tw88: 腿跟臂之間的對決火花 ^.< 07/11 18:41
333F:推 twnc1006: 兩個看起來很好 一直笑= = 07/11 18:42
334F:→ twnc1006: 林補看到微笑鍋也一直笑啊 07/11 18:43
335F:推 tw88: 大義覺得口渴(望~ 07/11 18:45
336F:→ hu610346: 林捕真的好帥... 07/11 18:46
337F:→ komikado5566: 這啤酒節女郎… 07/11 18:47
338F:→ shintz: 歐叭啦 07/11 18:49
339F:推 ofpurity: 捕手砲阿 07/11 18:49
340F:推 lml99: 這跑步律動XDDDDDDDDDDDDDD 07/11 18:49
341F:推 FannWong: 矮肥矮肥 07/11 18:49
342F:推 wb7346: 台體四棒 07/11 18:49
343F:推 sungastill: 釣蝦快來吧,這殘破守備真的很暈= = 07/11 18:49
344F:→ shintz: 鏡頭搖得很厲害阿XD 07/11 18:50
345F:→ shintz: 60號反映挺快 07/11 18:50
346F:推 dxcer: 又是海... 07/11 18:51
347F:推 cpcpao: = =詹帥會被玩死 07/11 18:51
348F:推 linchung: 抗議拉~~~ 07/11 18:52
349F:推 sungastill: 唐基在做啥XD 07/11 18:52
350F:推 s638450: 洪中受不了了XD 07/11 18:52
351F:推 scm6310: ????? 07/11 18:52
352F:推 comicgirl: 吵架王來了 07/11 18:52
353F:推 yankees733: 紅中來了 07/11 18:52
354F:推 wb7346: 大聲了大聲了 07/11 18:52
355F:推 ofpurity: 洪中很怒喔 07/11 18:52
356F:推 iceyang: 紅中終於受不了惹 靠 07/11 18:52
357F:推 yyc1217: 請勿拍打餵食 07/11 18:52
358F:推 babaholala: 不是說好壞球沒得質疑的嬤 07/11 18:52
359F:推 lml99: 上來幹譙完馬上回去XDDDDDDDDDD 07/11 18:52
360F:推 murray: 紅中怒了 07/11 18:52
361F:推 terry66: 這球真的很誇張 哈哈 07/11 18:52
362F:推 jj1004: 這球連投捕應該都覺得好笑 主審真的很....XDDDD 07/11 18:52
363F:推 tw88: 阿志 uccu 07/11 18:52
364F:推 a26892296: 尤……不意外 07/11 18:52
365F:推 Uballchien: 這個裁判就之前那個阿.... 07/11 18:52
366F:推 lin0322: 主審沒用 不敢把紅中趕出去 07/11 18:52
367F:→ Finn5566: 尤志欽到底有什麼資格可以站主審zzz 07/11 18:52
368F:→ wb7346: 看罵完會部會改善 07/11 18:52
369F:→ sungastill: 菜逼八被定了 07/11 18:52
370F:→ comicgirl: 原來今天是尤啊 那..... 07/11 18:53
371F:→ yyc1217: 為什麼不趕出去 好球帶不是不能質疑? 07/11 18:53
372F:推 jajaja123: 拐氣囉 竟然沒被趕出去 07/11 18:53
373F:→ ofpurity: 主審跟細漢的一樣XD 07/11 18:53
374F:推 e7660239: 難怪會被衝撞 07/11 18:53
375F:推 hu610346: 神全最近守備怎麼了... 07/11 18:53
376F:推 pchunter: 好球袋不能質疑吧?應該要趕出去 07/11 18:53
377F:→ iceyang: 沒得質疑 可以抗議阿 xD 07/11 18:53
378F:推 qiryimvjp: 這主審根本也太誇張 這好球XDDDD? 07/11 18:53
379F:推 andy89202033: 罵的好 這裁判爛死了 07/11 18:53
380F:推 w921216: 那球高成那樣= = 07/11 18:53
381F:→ mimiiy: 看不下去,變形尤 07/11 18:53
382F:推 sharkhead: 這裁判不意外阿,活該被冰二軍 07/11 18:53
383F:→ sungastill: 紅中罵得好,剛那顆太扯,重點變形蟲超嚴重 07/11 18:53
384F:推 oldEn15: 水準真差.... 07/11 18:53
385F:推 KaitouKid: 詹帥前一個打席被三振那球也很扯 07/11 18:53
386F:推 bignoob: 那球明顯是誤判 07/11 18:53
387F:推 GAIEGAIE: 自知理虧啊 判成這樣 07/11 18:53
388F:→ iceyang: 紅中已經比鄉民好了好嘛 鄉民幹多久惹 xD 07/11 18:53
389F:推 dxcer: 尤不敢趕人 XD 07/11 18:53
390F:→ flameteru: 這趕出去 可能要被鄉民酸死了 07/11 18:54
391F:推 asstitle: 主審乖乖站著聽洪中訓話 太扯了吧 07/11 18:54
392F:→ jj1004: 主審好球帶每個都很怪XDD 07/11 18:54
393F:推 TheAnswer: 不懂為什麼還要讓他站主審 根本凌虐球員 07/11 18:54
394F:推 scm6310: 主審趕下班吧 07/11 18:54
395F:→ andy89202033: 要趕就趕阿~看你心不心虛 07/11 18:54
396F:→ flameteru: 大威準備好了沒 07/11 18:54
397F:噓 sandemo: 紅中好像韓國人 07/11 18:54
398F:推 reborn0301: 還有人挺裁判XD 07/11 18:55
399F:→ zsxdaqwe: 上來質疑好球帶主審只能立正站好說教 07/11 18:55
400F:推 twnc1006: 自己去看尤志欽站主審判的場ZZZ 07/11 18:55
401F:→ jj1004: 老實說 今年已經算好了 前兩年要拿竹竿打 07/11 18:55
402F:推 Finn5566: 最扯的是他都站有LM的比賽 難怪洪中會美送 07/11 18:55
403F:→ amani168: 有點好笑 洪中:價跨 ㄍㄧㄡˋ一洗咩安爪怕 07/11 18:55
404F:推 globekiller: 主審乖乖被訓 哈哈XDDD 07/11 18:55
405F:→ sandemo: 紅中轉氣失敗 07/11 18:55
406F:→ reborn0301: 不要得利了就合理化裁判好嗎 07/11 18:55
407F:推 tw88: 高砲ready~~~ 07/11 18:56
408F:推 Midiya: 尤本來就很誇張 被電剛好 07/11 18:56
409F:推 wb7346: 欠噴 07/11 18:56
410F:推 BlackBriar: 亂判一通,站著被訓剛好而已 07/11 18:56
411F:推 dm03: 前兩年好歹外角海還算固定~尤是超級變形好球帶 07/11 18:56
412F:推 zsxdaqwe: 3台灣裁判都這樣軟軟的實在很爛 07/11 18:57
413F:推 Finn5566: 是說之前有人不是有截影片寄去聯盟 看來是石沉大海了 07/11 18:57
414F:推 mowkow0611: 猛打 07/11 18:58
415F:推 muching: 猛打賞 07/11 18:58
416F:→ terry66: 洪中應該快爆炸了 哈哈 07/11 18:58
417F:推 shintz: 990h 07/11 18:58
418F:推 sungastill: 猛猛猛 07/11 18:58
419F:推 Qiaodi: amani大你也滿厲害的~還聽得出來紅中在講什麼 07/11 18:58
420F:推 jj1004: 991了 好快 07/11 18:58
421F:推 ichiyo: 尤真的超爛 蹲下來也特別慢 07/11 18:58
422F:推 binzip: 壘上無人安打王(剛那隻也是 07/11 18:58
423F:推 yyc1217: M9 07/11 18:58
424F:→ mowkow0611: 好險 07/11 18:58
425F:→ yyc1217: 還是M10? 07/11 18:59
426F:推 twnc1006: 之前國際裁判就有說中職裁判都沒有送出國訓練過 07/11 18:59
427F:推 shintz: 慢跑上三壘XD 07/11 19:00
428F:推 tw88: 詹帥守備瞬間轉身好帥 07/11 19:00
429F:推 muching: 剛如果LM回傳加快,神全慢跑會被刺殺 07/11 19:00
430F:推 sungastill: 義大與LM守備一個天一個地 07/11 19:01
431F:推 scm6310: QQ 07/11 19:03
432F:噓 terry66: 果然 又變了 這球拉掉 07/11 19:03
433F:推 CarrieWhite: 也太外角了,都壓線了 07/11 19:03
434F:推 bignoob: 海海海海海 07/11 19:03
435F:噓 hu610346: ........靠北XDDD這好球 07/11 19:03
436F:推 lunqun35: 拉掉…~~ 07/11 19:03
437F:→ bignoob: 這主審真的戲份很多 07/11 19:03
438F:推 andy89202033: 變形蟲 不意外 07/11 19:03
439F:推 m85037: 外角海 07/11 19:03
440F:推 komikado5566: 外角海來囉 07/11 19:03
441F:推 lp210723: 這到底什麼裁判 07/11 19:03
442F:→ shintz: 這根本打不到也會被拉掉.. 07/11 19:03
443F:→ terry66: 這位置 林WW好球 火哥壞球 高國輝壞球 黑峻好球 07/11 19:03
444F:推 jj1004: 都給主審玩就好了阿XDDD 07/11 19:03
445F:→ CarrieWhite: 大威也出來park一下吧 XDDD 07/11 19:03
446F:推 littlethree: 有點外角 07/11 19:03
447F:推 mysterybear: 這好球你信??????? 07/11 19:03
448F:推 Qiaodi: 請問專業的鄉民~這樣算是還一球嗎XD 07/11 19:04
449F:噓 jengjian: 洪生路怎麼不出來抗議了 07/11 19:04
450F:推 binzip: 應該換小葉出來喊一下 07/11 19:04
451F:推 k87559527: 扯 07/11 19:04
452F:推 oldEn15: 其實這球還好 詹的比較誇張 07/11 19:04
453F:→ jj1004: 好球帶一致的濫XDDD 07/11 19:04
454F:推 easybaby: ??? 07/11 19:04
455F:噓 t20000911: 鬼神好球帶XDDDDDDDDD 07/11 19:04
456F:→ lp210723: 尤已經超越所有了 07/11 19:04
457F:→ andy89202033: 小葉可以出來喊阿~科科 07/11 19:04
458F:推 ubei: 詹是外角又偏高..這裁判眼睛真得...XDD 07/11 19:04
459F:→ Finn5566: 尤的問題這麼多 到底為什麼還讓他繼續站? 07/11 19:04
460F:→ jengjian: 洪生路只會浪費大家時間 07/11 19:04
461F:噓 ft090646: 紅中這球怎不抗議 07/11 19:04
462F:推 WilliamsChen: 主審超搶戲XD 07/11 19:05
463F:→ jj1004: 怕小葉出來喊 反而被趕出去XDD 07/11 19:05
464F:推 kiliasnake: 自家球員總教練要自己出來阿 扯洪中幹麼 07/11 19:05
465F:推 bignoob: 可以叫葉總抗議啊 07/11 19:05
466F:推 pchunter: 龍迷在幹嘛? 07/11 19:05
467F:→ Finn5566: 說請紅中抗議的還真趣味 該抗議也是你們葉總出來吧 07/11 19:05
468F:→ lml99: 控球好跟選球眼對這位主審完全沒用阿 07/11 19:05
469F:推 terry66: 正妹 07/11 19:05
470F:推 helen7510: 紅中這球幹嘛出來~要出來也是葉總出來阿 07/11 19:05
471F:→ WilliamsChen: 叫洪中出來的是....? 07/11 19:06
472F:推 a5480277: 棉花糖的妹妹~~ 07/11 19:06
473F:推 babaholala: 賣棉花糖的也要比肌肉XDDD 07/11 19:06
474F:推 hu610346: 棉花糖女孩很正...腿很漂亮 07/11 19:06
475F:推 yyc1217: 錢難賺 07/11 19:06
476F:→ Finn5566: SP投6局 老疲今天會上嗎? 07/11 19:06
477F:推 binzip: 七下換投了,打線上班嘍 07/11 19:06
478F:→ hu610346: 竟然沒曼斗 你敢信? 07/11 19:07
479F:推 LKN555: 哈剛那樣棉花糖應該會比較好賣吧XDD 07/11 19:08
480F:推 scm6310: 別再老皮了.... 07/11 19:08
481F:推 hu610346: WW真的帥 07/11 19:09
482F:推 jj1004: 我犀你猿又要牛棚大對決了... 07/11 19:09
483F:→ WilliamsChen: E 07/11 19:11
484F:推 EnosKP: 冠威的日常 07/11 19:11
485F:推 thirdblue: 冠威~~~~~~~~ 07/11 19:11
486F:→ simon3458: EEEEEEEEEEEEEE 07/11 19:11
487F:推 StephenLai: 冠威又在付學費了 07/11 19:11
488F:推 NTJL: 冠威4NI 07/11 19:11
489F:推 wb7346: 又要召喚賈西亞了 07/11 19:11
490F:→ hu610346: 正常能量釋放 07/11 19:11
491F:推 k87559527: E 07/11 19:11
492F:推 shintz: 先發任務(1/1) 07/11 19:11
493F:推 joey89116: 87 07/11 19:11
494F:推 LoveCheer: 不信邪XDDDD 擺三壘 07/11 19:11
495F:推 yyc1217: 又要從E開始被逆轉了嗎(抖) 07/11 19:12
496F:推 reborn0301: 該換老皮了吧 07/11 19:12
497F:推 shanaandlai: 左投剋左打 07/11 19:12
498F:→ EnosKP: 林:三壘失誤換掉我Q_Q 07/11 19:12
499F:推 jj1004: 羅伯特又嫌投手太多了 有夠無言 07/11 19:12
500F:→ k87559527: 付學費 07/11 19:12
501F:→ yyc1217: 接下來會換老皮嗎 07/11 19:12
502F:推 Finn5566: 會是一人左嗎? 07/11 19:12
503F:→ k87559527: 要天天皮嗎 07/11 19:13
504F:推 simon3458: 4634 07/11 19:13
505F:推 dxcer: 4634 07/11 19:13
506F:推 bignoob: 4634人進場 07/11 19:13
507F:推 RELIFE168: 4634 07/11 19:13
508F:推 StephenLai: 禮拜六人少到離譜 07/11 19:13
509F:→ rock0525: 失誤換投手不換野手....XDDD 07/11 19:13
510F:→ babaholala: 平偉 07/11 19:14
511F:推 hu610346: 炸裂文先準備好 我牛常常失非自責分 07/11 19:14
512F:推 devil0915: 週六4634?? 快回到黑暗期的人數了= = 07/11 19:14
513F:→ RELIFE168: 週末又辦趴 ........這人數不理想阿 07/11 19:14
514F:推 LoveCheer: 人好少 明年不會排60場了吧? 07/11 19:14
515F:推 LaBoLa: 今天世大運冠軍賽,這樣已經很好了 07/11 19:14
516F:推 oddhand: 星期六x暑假還不到五千人@@ 07/11 19:14
517F:→ kenny770322: 換平偉,球速大概八萬一 07/11 19:14
518F:推 dlchang5810: 這應該是平日的進場人數吧? 07/11 19:14
519F:→ devil0915: 如果今天是遇到喵喵,那人數之低可能會無法想像 07/11 19:15
520F:推 whshsquall: 冠威失誤感覺要失分了 07/11 19:15
521F:→ hicker: 黑暗期還沒這麼多人.... 07/11 19:15
522F:推 jj1004: 羅伯特有沒有算過他左投克左打成功率........ 07/11 19:16
523F:推 EnosKP: 郭嚴文這contact..... 07/11 19:16
524F:→ yyc1217: 失誤→換投→失分 07/11 19:16
525F:→ wb7346: 猛將 07/11 19:17
526F:推 StephenLai: 冠威失誤必失分似乎成了定律了 07/11 19:17
527F:推 LoveCheer: 神調度 07/11 19:17
528F:→ shintz: ........又是這套劇情 07/11 19:17
529F:推 KG8807037: 以左剋左看他沒一次成功的...搞屁啊... 07/11 19:17
530F:→ jj1004: 林正豐投的好好的 笑死 07/11 19:17
531F:推 bignoob: 劇情好像似曾相似? 07/11 19:17
532F:推 BellamyLee: 為什麼我秀被換? 07/11 19:17
533F:推 zoosd: 臂力還真爛 07/11 19:17
534F:推 Y1999: 陽砲失誤是不是必掉分阿... 07/11 19:17
535F:→ wb7346: WW往哪傳............... 07/11 19:17
536F:→ Finn5566: hu神算 07/11 19:17
537F:推 EnosKP: 冠威你XDDDDDDDDDDDDDDDD 07/11 19:18
538F:→ shintz: 鏡頭被騙啦XDDD 07/11 19:18
539F:推 dodotank: 好個 Pump Fake 07/11 19:18
540F:推 monkeyannie: XDD 07/11 19:18
541F:→ jj1004: 假動作過人XD 07/11 19:18
542F:→ lml99: 哪招拉 07/11 19:18
543F:→ reborn0301: 好險沒傳 07/11 19:18
544F:→ StephenLai: 假動作騙攝影師之術 07/11 19:18
545F:推 thirdblue: 騙到攝影師XDDDD 07/11 19:18
546F:→ wb7346: 妳DAJ ? 07/11 19:18
547F:推 lin0322: 豐哥可憐 該結束一局變敗投候選 07/11 19:18
548F:推 blackhearted: 陽冠威是三小 07/11 19:18
549F:推 m85037: 騙到攝影師XDDDD 07/11 19:18
550F:→ NTJL: 攝影師:............. 07/11 19:18
551F:推 yyc1217: XDDDDDD 07/11 19:18
552F:推 tomashsue: 陽冠威你是咧從三小 07/11 19:19
553F:推 muching: 陽冠威就是沒有守備天分的人,不管C,3B或LF,擺哪都不對 07/11 19:19
554F:推 Qiaodi: 哈哈~假動作~騙民視的攝影師啦 07/11 19:19
555F:→ hu610346: 陳俊秀怎麼了? 07/11 19:19
556F:噓 a0973400210: 對自己傳球真是沒信心 07/11 19:19
557F:→ jj1004: 林正豐衰到爆 自己還沒機會解決 還被換下 07/11 19:19
558F:→ m85037: 騷寶寶 07/11 19:19
559F:推 fu456: 好好奇冠威真的傳 牛牛們會怎樣XDDDD 07/11 19:19
560F:推 a111111zz: 先墊步結果踩三壘 07/11 19:19
561F:→ NTJL: 沒信心個頭啦 那球根本不用傳 07/11 19:19
562F:推 dlchang5810: 應該有隊友喊踩3壘就好了吧! 07/11 19:19
563F:→ fu456: 歪 07/11 19:19
564F:推 crime: 三壘不處理,義大就是沒競爭力。 07/11 19:20
565F:噓 g220809846: 陽冠威還是快點去紅珊瑚練幾年再說吧。 07/11 19:20
566F:推 straight0711: 左右病的極致 07/11 19:20
567F:→ tomashsue: 看了真的會怒,超怒 07/11 19:20
568F:→ WeAntiTVBS: 永維去左外野了 07/11 19:20
569F:→ g220809846: 三壘守備率0.769是要跟人家打什麼職棒? 07/11 19:20
570F:推 andy89202033: 他頭腦反應太慢了吧 這球不用考慮傳一壘吧 直接採壘 07/11 19:20
571F:推 chery1234: 大義好可愛XDD 07/11 19:20
572F:噓 wb7346: 誰來解釋這守備位置 07/11 19:20
573F:推 monkeyannie: 音樂XD 07/11 19:20
574F:推 mystage: 又來了,德龍一壘 07/11 19:21
575F:→ crime: 陽的打擊威力根本不足以讓他佔著三壘位置呀 07/11 19:21
576F:→ jj1004: 林正豐好歹也是勝利組 2人出局1壘有人 換投手... 07/11 19:21
577F:→ shintz: 增加愛將的守備位置 上場機率up 07/11 19:21
578F:→ muching: 的確是沒信心,正常守備下那一球傳一壘比踩三壘還更穩 07/11 19:21
579F:推 philxiao: 為什麼不是林智勝站一壘?! 07/11 19:22
580F:推 LoveCheer: 義大就沒人才啦 有什麼辦法? 07/11 19:22
581F:推 oddhand: 蘭斯佛撐到完投吧 米糕現在沒有勝利組可以用啊 07/11 19:22
582F:→ muching: 外角海海海 07/11 19:26
583F:推 bignoob: 本壘板外面半顆到一顆 07/11 19:26
584F:→ icecold52: 我佛慈悲啊 居然撐到七局了 XD 07/11 19:26
585F:推 blueasoo: 開演唱會才4000多人 有點慘 07/11 19:26
586F:推 globekiller: 米糕只有勝利告別組 07/11 19:27
587F:推 yyc1217: 小葉出來抗議一下呀 我想看會不會被尤趕出去 07/11 19:27
588F:推 a12367227: 姊姊這場又QS了 07/11 19:28
589F:推 devil0915: 騷寶寶今日回來當一日啦啦隊嗎? 07/11 19:28
590F:→ a12367227: 啊 看錯 07/11 19:28
591F:→ a12367227: 可能拉票吧 07/11 19:28
592F:推 bignoob: 欺負60號手短喔 07/11 19:29
593F:→ a8330028: = = 這怎麼打 07/11 19:29
594F:推 hu610346: 測速槍呢? 07/11 19:29
595F:→ hu610346: 劉芙豪好可愛喔XDDDD矮矮胖胖的哈哈 07/11 19:30
596F:→ hu610346: 更正 劉時豪 07/11 19:30
597F:→ hu610346: 守備組無誤... 07/11 19:31
598F:→ hu610346: 人怎麼都不見了 沒人陪我聊天了? 07/11 19:31
599F:→ hu610346: 這邊好空曠喔哈哈哈哈哈阿哈哈 好無聊 我回隊板好了@@ 07/11 19:32
600F:推 bignoob: 空虛 寂寞 覺得冷? 07/11 19:32
601F:推 s65830056: 閣下不就在跟自己聊天了嗎? 07/11 19:32
602F:推 b0850: 這種懶散的守備XD 07/11 19:32
603F:推 sungastill: 大胖偷酸紅中沒選高國輝XD 07/11 19:33
604F:推 Leaflock: 滾的好慢 07/11 19:33
605F:推 wb7346: 散步野球 07/11 19:33
606F:推 NEOdesu: 大胖偷酸紅中不選高國輝 07/11 19:33
607F:推 philxiao: 這種打二壘安打XD 07/11 19:33
608F:推 a8330028: EDA內野失誤送壘包 外野散漫送壘包 07/11 19:33
609F:推 mimiiy: 看得很沒力@@ 07/11 19:33
610F:推 bignoob: 等等LM油罐牛棚上場就有爆點了 07/11 19:34
611F:→ icecold52: 詹帥打擊率快跌破3成了 這樣子怎麼結婚啊?!!! XDDD 07/11 19:35
612F:推 NEOdesu: 可能要單挑火哥搶最佳九人才能結婚吧XD 07/11 19:37
613F:推 sungastill: 詹帥今年很難嫁出去惹XD 07/11 19:37
614F:→ ivan609: 下莊!! 07/11 19:37
615F:→ sungastill: 不過金手套沒問題 07/11 19:37
616F:推 iceyang: 寶寶~~~ 07/11 19:39
617F:推 yyc1217: 寶寶的妝是不是變淡了 07/11 19:39
618F:→ bignoob: FB勳~~~ 07/11 19:39
619F:→ bignoob: 收視率up up 07/11 19:39
620F:推 ivan609: LM牛棚上班啦 比賽正式開始!? 07/11 19:40
621F:→ bignoob: 連H HR 平手 逆轉 今天你選哪道? 07/11 19:40
622F:推 sungastill: 啦啦隊排名 PS>LMG>UG>RA 07/11 19:40
623F:推 pilgrimangus: 收視...不!點閱率來了 07/11 19:40
624F:→ ivan609: 中穿HHHHHHHHHHHHHHHHHHHHHH 07/11 19:41
625F:→ linchung: 如果EDA追平或超前 下局會上老皮嗎 07/11 19:41
626F:→ bignoob: HHHHHHHHH 07/11 19:41
627F:→ pilgrimangus: hu大,快回來聊天XD 07/11 19:41
628F:→ flameteru: 又要抖了 07/11 19:41
629F:推 WINKAO: 誰說落後老皮就不能上的 XD 07/11 19:41
630F:→ sungastill: 你有張良鄉,我有過牆皮 Q_Q 07/11 19:41
631F:→ CarrieWhite: 追平不知道,超前一定是lo49吧? 07/11 19:42
632F:→ ivan609: 要火哥點!? 07/11 19:42
633F:推 oddhand: 竟然沒讓蘭斯佛完投 米糕輸定啦 07/11 19:43
634F:推 cissant: 要爆了 噗 07/11 19:43
635F:→ flameteru: 假點吧 騙壞球 07/11 19:43
636F:推 peter5214: 猴子感覺不是很想贏 07/11 19:43
637F:推 bignoob: 真的點了!? 這戰術... 07/11 19:43
638F:推 ivan609: 真的點了... 把機會傳給輝全!!! 07/11 19:44
639F:推 tw88: XDDDD 07/11 19:44
640F:推 hu610346: 陳俊秀怎麼不見了 07/11 19:44
641F:推 straight0711: BB 07/11 19:44
642F:推 pilgrimangus: k人啦 07/11 19:44
643F:→ bignoob: 丟人拉~~丟人拉 07/11 19:44
644F:→ ivan609: 丟人啦!!!! 07/11 19:44
645F:推 shintz: ..... 07/11 19:44
646F:推 StephenLai: 太扯了 07/11 19:44
647F:推 murray: 高國輝好像怒了 XD 07/11 19:44
648F:→ leonjapan: 控球慘不忍睹...................... 07/11 19:44
649F:→ ft090646: 打太爛被換下去? 07/11 19:44
650F:→ icecold52: 丟人啦 丟人啦 丟人啦 居然敢丟桃園王 07/11 19:44
651F:推 easybaby: QQ 07/11 19:44
652F:→ muching: 高國輝的表情還蠻不爽的 07/11 19:44
653F:噓 terry0968: 阿嬤的魔球 07/11 19:44
654F:噓 TristyRumble: 阿嬤魔球 07/11 19:44
655F:→ man790810: 紅中又丟人啦 07/11 19:44
656F:推 NEOdesu: Boo~ 07/11 19:44
657F:→ rock0525: 香腸你不錯......... 07/11 19:45
658F:→ pilgrimangus: 鄉長是想笑嗎0.0 07/11 19:45
659F:→ ft090646: 阿罵魔球? 07/11 19:45
660F:噓 wb7346: 珍藏的魔球 07/11 19:45
661F:→ WeAntiTVBS: 快 多塞幾個壘包 想看後幾棒打大支的 07/11 19:45
662F:→ tw88: 噓一個 蠻愛看你fb的說 07/11 19:45
663F:→ Lackland: 大威要生氣了 07/11 19:45
664F:→ yyc1217: 今日鄉長 明年老皮 07/11 19:45
665F:→ TristyRumble: 內部情資呢 07/11 19:45
666F:推 babaholala: 鄉長 你這表情根本討戰啊 07/11 19:45
667F:→ wb7346: 三井全 07/11 19:45
668F:推 pchunter: 高是不是有罵park? 07/11 19:45
669F:→ ivan609: 打到側腹部... 07/11 19:45
670F:→ cauliflower: 國輝看來很不爽 07/11 19:45
671F:推 a12367227: 魔球降臨! 07/11 19:45
672F:推 DukeMonkey: 神全跳投三分啦 07/11 19:45
673F:噓 shadowmelo: 故意的......紅中站出來解釋清楚 07/11 19:45
674F:→ straight0711: 三分外線預備 07/11 19:45
675F:推 jenchieh5: 你們怎麼可以讓國輝生氣 太壞了 07/11 19:45
676F:推 forfan: 會送壘的fu 07/11 19:45
677F:推 oddhand: 好爛的控球 07/11 19:45
678F:→ ivan609: 神全再炸一個吧 三分全!!!! 07/11 19:45
679F:推 odsky: 都不是故意的... 07/11 19:45
680F:→ ivan609: ................... 07/11 19:45
681F:推 e7660239: Dp 07/11 19:45
682F:推 a12375111: 鄉長會怕桃園王嗎 07/11 19:45
683F:→ murray: 一棒擊沉!!! 07/11 19:45
684F:→ bignoob: DP 07/11 19:45
685F:→ WeAntiTVBS: GG 07/11 19:45
686F:→ DukeMonkey: DP......... 07/11 19:45
687F:→ pilgrimangus: gg 07/11 19:45
688F:推 s638450: DP 07/11 19:46
689F:→ spy9527: 一全不意外 07/11 19:46
690F:推 andy89202033: 神全dp 07/11 19:46
691F:推 comicgirl: 精算師.... 07/11 19:46
692F:推 terryiory: 一壘空的,第一球被砸到真的會不爽 07/11 19:46
693F:推 lpboyboy: 不累 不累 07/11 19:46
694F:→ icecold52: 居然打了個國慶DP球 這你敢信?! XD 07/11 19:46
695F:推 kyoin: 打這麼扎實.......可惜了 07/11 19:46
696F:推 twnc1006: XDDD 07/11 19:46
697F:→ forfan: dp全 07/11 19:46
698F:推 chigo520: E全 XD 07/11 19:46
699F:→ WeAntiTVBS: 一棒擊全 07/11 19:46
700F:→ spy9527: 關鍵時刻軟手王 07/11 19:46
701F:→ wb7346: 計畫通 07/11 19:46
702F:→ jenchieh5: 軟手了 07/11 19:46
703F:推 shintz: 一棒擊沉....這也算啦= = 07/11 19:46
704F:推 hu610346: 打好紮實...唉真可惜 07/11 19:46
705F:→ sharkhead: 這球爽XDD 07/11 19:46
706F:→ flameteru: 強勁打到牆 負運 07/11 19:46
707F:推 Leaflock: 今天的鄉長有穿褲子 07/11 19:46
708F:推 sniperlin: 這樣大威 會fb喔 07/11 19:46
709F:→ muching: 林益全的關鍵時刻打率又要被酸了 XD 07/11 19:46
710F:→ ivan609: 打得很強勁 直接找人...... 07/11 19:46
711F:→ oddhand: 今晚FB: 鄉民看到了沒 這就是實力 07/11 19:46
712F:→ rock0525: 一棒全掛.. 07/11 19:46
713F:→ a12367227: dp...害香腸沒fb發了 07/11 19:46
714F:推 goodevening: 觸身才有dp 只能說啥 07/11 19:46
715F:推 sungastill: DP 老皮會上嗎XD 07/11 19:46
716F:→ shadowmelo: 紅中觀念 別人丟我的球員都是故意的 07/11 19:46
717F:推 jj1004: 打太準了吧 動都沒動.... 07/11 19:46
718F:推 hydexhyde: 不愧是壘上無人安打王 07/11 19:46
719F:推 reborn0301: 又軟手 07/11 19:47
720F:→ goodevening: 洪中說eda故意的不是早有定論是故意的? 07/11 19:47
721F:推 toolin: 美式球風會出現嗎? 07/11 19:47
722F:推 adam7148: 感謝益全 07/11 19:47
723F:推 popbitch: 報昨天的仇 07/11 19:47
724F:推 asstitle: 連星結束 九下自殺棒應該就三上三下輕鬆解決 07/11 19:47
725F:推 NTJL: DP仇恨值瞬間蓋過HR的好感度 07/11 19:47
726F:→ jj1004: 一雙殺又一堆跑出來 之前又躲起來XDD 07/11 19:47
727F:→ a12367227: 香腸可以說別人故意,別人不能說他哦xD 07/11 19:47
728F:→ icecold52: 鄉長:我這是故意四壞桃園王 抓神全DP戰術好嗎?! 07/11 19:48
729F:推 yyc1217: 大威沒有內部情資 07/11 19:48
730F:推 bojatom: 下場的時候 60號還往高國輝的方向看? 07/11 19:48
731F:→ NTJL: 可以啊 盡量說~ 07/11 19:48
732F:→ clubsir: 內野根本很難跑 容易摔倒 07/11 19:49
733F:推 a12367227: 希望國輝沒事 07/11 19:49
734F:→ goodevening: 怎麼會淪落到敗處勒.... 07/11 19:49
735F:推 opwin: 懶得四球敬遠 丟一下桃園王比較快順便報仇 07/11 19:49
736F:→ ft090646: 紅中賽後會出來說內部情資嗎? 07/11 19:49
737F:推 toolin: 勝雄要變天天系列了嗎 07/11 19:50
738F:推 corner0111: lamigo加油聲真大 07/11 19:50
739F:噓 qwehaha: 神全..這種關鍵時刻...唉 07/11 19:50
740F:→ goodevening: 紅中內部情資說 不是證實故意是真的?? 07/11 19:50
741F:推 bignoob: HRRRR 07/11 19:51
742F:推 F12: 詐 07/11 19:51
743F:推 reborn0301: 黃真慘 被操壞了 07/11 19:51
744F:→ a12367227: 01拳今天打的不錯了 07/11 19:51
745F:推 adam7148: 炸裂 07/11 19:51
746F:→ shintz: .....gg 07/11 19:51
747F:推 goodevening: 有機會挑戰史上最強34棒嗎 07/11 19:52
748F:→ NTJL: LM塔終於又開工了(淚 07/11 19:52
749F:推 blueasoo: 外野人好多....... 07/11 19:52
750F:→ cpcpao: 猿文跳舞跳一圈 07/11 19:52
751F:→ bignoob: EEEEE? 07/11 19:53
752F:推 nyyjeter8: 冠威... 07/11 19:53
753F:推 adam7148: 又失誤了 07/11 19:53
754F:→ cissant: 哈哈哈哈哈哈 07/11 19:53
755F:→ doris1016: 爛到沒話說XDDD 07/11 19:53
756F:→ goodevening: 冠威的日常 07/11 19:53
757F:→ cissant: 搞笑組的XD 07/11 19:53
758F:推 oddhand: 往三壘打 07/11 19:53
759F:→ bignoob: 冠威的日常 07/11 19:53
760F:推 wb7346: 冠威魔咒.... 07/11 19:53
761F:推 murray: 杯具 07/11 19:53
762F:→ globekiller: 冠威 囧 07/11 19:53
763F:推 yankees733: 冠威的日常XD 07/11 19:53
764F:推 mystage: 這顆我都能接 07/11 19:53
765F:→ NEOdesu: 真的只能換人了 像版友說的三一壘互換應該是正解 07/11 19:53
766F:噓 Ison: 爛透了 07/11 19:53
767F:噓 Lackland: 我去守也跟他差不多 07/11 19:53
768F:推 michael9002: 正常能量釋放 07/11 19:53
769F:→ rock0525: 不會接就不要搶..... 07/11 19:54
770F:推 yyc1217: 失誤後又要失分了 07/11 19:54
771F:→ goodevening: 今年最悲劇的一三壘守備吧.... 07/11 19:54
772F:推 a12367227: 要讓鳳雛守三壘......有點沉重 07/11 19:54
773F:→ cpcpao: 加油聲有點猛 07/11 19:54
774F:→ adam7148: 教練對他真有愛 來一軍練守備 07/11 19:54
775F:推 anoreader: 這時候偷點 應該又是呼叫美國人時間了... 07/11 19:54
776F:→ goodevening: 持續繳學費,就怕根本沒收到效果 07/11 19:54
777F:推 NTJL: 三一互換只是換人被酸吧 07/11 19:54
778F:推 Leaflock: 希望明星賽增加野手守備比賽 讓球迷票選各隊選手參加 07/11 19:54
779F:推 reborn0301: 午迷還可以忍受多久呢? 07/11 19:54
780F:噓 vegetabler: 在棒球版都可以推 “XXX不倒台灣不會好”,XXX金價某 07/11 19:54
781F:→ ghostbird: 別忘了勝母鋒連線 07/11 19:55
782F:→ vegetabler: 甘單 07/11 19:55
783F:→ goodevening: 哀 正典說的好,守備不是應該在二軍練的嗎? 07/11 19:55
784F:→ muching: 老化的泰山都樂勝怎麼練都練不起來的冠威 07/11 19:56
785F:→ hu610346: KKKKKKKKKKKKKKKK 07/11 19:58
786F:→ mats0816: 偉仔的打擊率越降越低 07/11 19:58
787F:推 s65830056: 往3壘打 上壘率不知道有多少... 07/11 19:58
788F:→ hu610346: 等等是BOYO上班嗎? 沒劇場可以看了 開始工作 07/11 19:59
789F:推 yyc1217: 黃勝雄狀況好像不錯 壞球的情形有變少 07/11 19:59
790F:推 NTJL: 黃勝雄還能SP嗎? 07/11 20:00
791F:推 bignoob: 還有賽後演唱耶 CPBLTV再看 一下嘛 07/11 20:00
792F:推 m85037: apple 07/11 20:00
793F:推 applejone: 女孩們 讚 07/11 20:01
794F:推 bignoob: 準 07/11 20:02
795F:推 adam7148: KKKKK 07/11 20:02
796F:推 goodevening: 球速有點慢 但還是控的好 07/11 20:02
797F:推 knml: 帥氣三振 07/11 20:02
798F:推 sheng514155: 舒服多了 07/11 20:02
799F:→ DevilJJ: 為啥陽砲可以在一軍= = 守不行 打也不行 07/11 20:03
800F:→ muching: 沒手套又沒棒子 07/11 20:03
801F:推 gogogo123: 143還好吧 07/11 20:03
802F:→ ken5903247: 褲子好鬆 07/11 20:03
803F:推 tw88: 節奏好快xd 07/11 20:03
804F:推 yyc1217: 因為愛 07/11 20:03
805F:推 john54: 控球讚 07/11 20:03
806F:→ goodevening: 他受傷前都145的 07/11 20:03
807F:→ gogogo123: 狀況好最快146~148 狀況差 140上下 07/11 20:03
808F:推 philxiao: 看Boyo投球真的有爽度,少數本土投手有這種感覺的 07/11 20:03
809F:→ gogogo123: 上一場就146再飆呀 應該這場狀況問題吧 07/11 20:04
810F:→ goodevening: 真的是有救援天分 投一局很殺 07/11 20:04
811F:推 poweregg: 144 07/11 20:04
812F:推 bignoob: M1 07/11 20:05
813F:→ cpcpao: 外角低好準 07/11 20:05
814F:→ gogogo123: 通常擦棒球球速顯示都會快一些 07/11 20:05
815F:→ goodevening: 就直球狂塞好球帶,看他投球真得爽 07/11 20:05
816F:推 yyc1217: 代打王 07/11 20:06
817F:→ gogogo123: 鄉長以前不是還能封鎖MLB來台明星隊 結果現在慘兮兮 07/11 20:06
818F:→ icecold52: BOYO 15 球內解決 好像有點強 XD 07/11 20:07
819F:推 bignoob: GG EDA 2:4 LM 07/11 20:07
820F:→ aa97531aa: 喔喔喔喔 午午 07/11 20:08
821F:推 goodevening: 純看後援boyo成績非常漂亮 一局殺沒啥問題 07/11 20:08
822F:推 NTJL: BOYO節奏明快 07/11 20:08
823F:推 sheng514155: 賽後還有活動? 07/11 20:11
824F:→ NTJL: 好像還有 07/11 20:12
825F:推 hu610346: 聲音? 07/11 20:12
826F:推 yyc1217: 要跟球員喝酒烤肉 還有球員要唱歌 07/11 20:12
827F:→ icecold52: 義大賽後活動 CPBL TV會轉播嗎?? 07/11 20:14
828F:→ NTJL: 活動不在場內 看來沒得轉 07/11 20:15
829F:推 bignoob: 剛開TV 已經在過帶準備重播了 07/11 20:15
830F:→ WeAntiTVBS: 你當是桃園的LMTV喔 07/11 20:16
831F:→ NTJL: 場內的話 CPBLTV會轉~場外就沒轍了 07/11 20:16
832F:→ bignoob: LM動紫趴 CPBLTV有撥到後面 07/11 20:16
833F:推 WongTakashi: 賽後 場內可以 場外不行 07/11 20:17
834F:推 keans0785: 日本會內傷,超機車的XD 07/11 20:23
835F:噓 kazumi66: 原來去年贏今年也會穩贏?笑死人 07/11 20:29
836F:噓 etyk20: 金牌跟人家分 是分了以後錢會變少 還是金牌從圓形變半圓 07/11 20:38
837F:推 john54: 樓上3位 走錯棚了== 07/11 20:40
838F:→ WeAntiTVBS: 看來這篇要先解除 07/11 20:40
839F:推 howlife: 嘻嘻 07/11 20:47







like.gif 您可能會有興趣的文章
icon.png[問題/行為] 貓晚上進房間會不會有憋尿問題
icon.pngRe: [閒聊] 選了錯誤的女孩成為魔法少女 XDDDDDDDDDD
icon.png[正妹] 瑞典 一張
icon.png[心得] EMS高領長版毛衣.墨小樓MC1002
icon.png[分享] 丹龍隔熱紙GE55+33+22
icon.png[問題] 清洗洗衣機
icon.png[尋物] 窗台下的空間
icon.png[閒聊] 双極の女神1 木魔爵
icon.png[售車] 新竹 1997 march 1297cc 白色 四門
icon.png[討論] 能從照片感受到攝影者心情嗎
icon.png[狂賀] 賀賀賀賀 賀!島村卯月!總選舉NO.1
icon.png[難過] 羨慕白皮膚的女生
icon.png閱讀文章
icon.png[黑特]
icon.png[問題] SBK S1安裝於安全帽位置
icon.png[分享] 舊woo100絕版開箱!!
icon.pngRe: [無言] 關於小包衛生紙
icon.png[開箱] E5-2683V3 RX480Strix 快睿C1 簡單測試
icon.png[心得] 蒼の海賊龍 地獄 執行者16PT
icon.png[售車] 1999年Virage iO 1.8EXi
icon.png[心得] 挑戰33 LV10 獅子座pt solo
icon.png[閒聊] 手把手教你不被桶之新手主購教學
icon.png[分享] Civic Type R 量產版官方照無預警流出
icon.png[售車] Golf 4 2.0 銀色 自排
icon.png[出售] Graco提籃汽座(有底座)2000元誠可議
icon.png[問題] 請問補牙材質掉了還能再補嗎?(台中半年內
icon.png[問題] 44th 單曲 生寫竟然都給重複的啊啊!
icon.png[心得] 華南紅卡/icash 核卡
icon.png[問題] 拔牙矯正這樣正常嗎
icon.png[贈送] 老莫高業 初業 102年版
icon.png[情報] 三大行動支付 本季掀戰火
icon.png[寶寶] 博客來Amos水蠟筆5/1特價五折
icon.pngRe: [心得] 新鮮人一些面試分享
icon.png[心得] 蒼の海賊龍 地獄 麒麟25PT
icon.pngRe: [閒聊] (君の名は。雷慎入) 君名二創漫畫翻譯
icon.pngRe: [閒聊] OGN中場影片:失蹤人口局 (英文字幕)
icon.png[問題] 台灣大哥大4G訊號差
icon.png[出售] [全國]全新千尋侘草LED燈, 水草

請輸入看板名稱,例如:e-shopping站內搜尋

TOP